Date String (YYYY-MM-DD hh:mm:ss) UTC,Instrument flags,Ambient pressure (hPa),Sample flow (lpm),Bypass flow (lpm),Sample temperature (°C),Ambient temperature (°C),ASC tube jacket temperature (°C),LED temperature (°C),Box temperature (°C),Sample RH (%),Span deviation,Mass concentration (μg/m³),Mass concentration (μg/m³),Mass concentration (μg/m³)
DateTimeUTC,F1_M11,P_M11,Q1_M11,Q2_M11,T1_M11,T2_M11,T3_M11,T4_M11,T5_M11,U1_M11,ZSPAN_M11,X2_M11,X0_M11,X1_M11
2022-03-26 05:00:00,,0826.6,5.00,0.00,29.1,28.1,00.0,38.2,30.8,12.3,0002.8,0007.07,0018.84,0004.87
2022-03-26 05:01:00,,0826.6,4.99,0.00,29.1,28.1,00.0,38.1,30.8,12.3,0001.9,0007.00,0019.78,0004.83
2022-03-26 05:02:00,,0826.5,5.00,0.00,29.1,28.1,00.0,38.1,30.8,12.3,0002.4,0006.90,0020.15,0004.79
2022-03-26 05:03:00,,0826.5,5.01,0.00,29.1,28.1,00.0,38.1,30.8,12.3,0001.8,0006.84,0020.20,0004.72
2022-03-26 05:04:00,,0826.4,5.01,0.00,29.0,28.1,00.0,38.1,30.8,12.4,0002.6,0006.71,0020.60,0004.66
2022-03-26 05:05:00,,0826.5,4.99,0.00,29.0,28.0,00.0,38.1,30.8,12.4,0002.2,0006.61,0019.46,0004.61
2022-03-26 05:06:00,,0826.5,5.00,0.00,29.0,28.0,00.0,38.1,30.7,12.5,0002.0,0006.53,0018.40,0004.54
2022-03-26 05:07:00,,0826.5,5.01,0.00,29.0,28.0,00.0,38.1,30.8,12.4,0001.9,0006.43,0017.86,0004.46
2022-03-26 05:08:00,,0826.5,4.99,0.00,29.0,28.0,00.0,38.1,30.7,12.4,0000.8,0006.39,0017.48,0004.43
2022-03-26 05:09:00,,0826.5,5.01,0.00,29.0,28.0,00.0,38.1,30.7,12.4,0000.0,0006.33,0017.26,0004.43
2022-03-26 05:10:00,,0826.4,5.01,0.00,29.0,28.0,00.0,38.1,30.7,12.5,0000.0,0006.24,0017.24,0004.39
2022-03-26 05:11:00,,0826.3,4.99,0.00,29.0,28.0,00.0,38.1,30.7,12.5,0000.0,0006.16,0016.60,0004.31
2022-03-26 05:12:00,,0826.2,5.00,0.00,29.0,28.0,00.0,38.0,30.7,12.5,0000.0,0006.07,0015.58,0004.23
2022-03-26 05:13:00,,0826.2,5.00,0.00,29.0,28.0,00.0,38.0,30.7,12.5,0000.0,0006.00,0015.03,0004.16
2022-03-26 05:14:00,,0826.3,5.01,0.00,29.0,28.0,00.0,38.0,30.7,12.4,0000.0,0005.91,0014.61,0004.11
2022-03-26 05:15:00,,0826.4,5.00,0.00,29.0,28.0,00.0,38.0,30.8,12.4,0000.0,0005.89,0014.27,0004.10
2022-03-26 05:16:00,,0826.4,4.99,0.00,29.0,28.0,00.0,38.0,30.7,12.4,0000.0,0005.87,0014.68,0004.09
2022-03-26 05:17:00,,0826.3,5.00,0.00,29.0,28.0,00.0,38.0,30.7,12.5,0000.0,0005.81,0014.26,0004.11
2022-03-26 05:18:00,,0826.2,5.02,0.00,29.0,28.0,00.0,38.0,30.7,12.5,0000.0,0005.80,0014.72,0004.11
2022-03-26 05:19:00,,0826.3,4.99,0.00,29.0,28.0,00.0,38.0,30.7,12.5,0000.0,0005.76,0015.22,0004.11
2022-03-26 05:20:00,,0826.4,4.99,0.00,29.0,28.0,00.0,38.0,30.7,12.5,0000.0,0005.80,0017.06,0004.11
2022-03-26 05:21:00,,0826.4,5.01,0.00,28.9,27.9,00.0,38.0,30.7,12.5,0000.0,0005.81,0016.88,0004.11
2022-03-26 05:22:00,,0826.4,5.00,0.00,28.9,27.9,00.0,38.0,30.6,12.5,0000.0,0005.80,0016.62,0004.12
2022-03-26 05:23:00,,0826.4,4.99,0.00,28.9,27.9,00.0,38.0,30.7,12.5,0000.0,0005.81,0017.00,0004.14
2022-03-26 05:24:00,,0826.5,5.00,0.00,28.9,27.9,00.0,38.0,30.6,12.5,0000.0,0005.77,0017.48,0004.13
2022-03-26 05:25:00,,0826.5,5.02,0.00,28.9,27.9,00.0,38.0,30.6,12.5,0000.0,0005.77,0018.24,0004.12
2022-03-26 05:26:00,,0826.4,4.99,0.00,28.9,27.9,00.0,38.0,30.6,12.6,0000.0,0005.76,0017.91,0004.10
2022-03-26 05:27:00,,0826.4,5.00,0.00,28.9,27.9,00.0,37.9,30.6,12.6,0000.0,0005.74,0017.29,0004.08
2022-03-26 05:28:00,,0826.4,4.98,0.00,28.9,27.9,00.0,37.9,30.6,12.6,0000.0,0005.73,0017.24,0004.07
2022-03-26 05:29:00,,0826.4,5.00,0.00,28.9,27.9,00.0,37.9,30.6,12.6,0000.0,0005.71,0016.67,0004.07
2022-03-26 05:30:00,,0826.4,5.01,0.00,28.8,27.9,00.0,37.9,30.6,12.6,0000.0,0005.70,0016.26,0004.07
2022-03-26 05:31:00,,0826.4,4.99,0.00,28.9,27.9,00.0,37.9,30.6,12.6,0000.0,0005.72,0014.75,0004.07
2022-03-26 05:32:00,,0826.4,4.99,0.00,28.9,27.8,00.0,37.9,30.6,12.6,0000.0,0005.74,0014.67,0004.07
2022-03-26 05:33:00,,0826.3,5.02,0.00,28.8,27.8,00.0,37.9,30.6,12.6,0000.0,0005.71,0015.27,0004.07
2022-03-26 05:34:00,,0826.3,5.00,0.00,28.8,27.8,00.0,37.9,30.5,12.6,0000.0,0005.65,0014.66,0004.06
2022-03-26 05:35:00,,0826.4,4.99,0.00,28.8,27.8,00.0,37.9,30.6,12.6,0000.0,0005.70,0014.14,0004.06
2022-03-26 05:36:00,,0826.5,5.00,0.00,28.8,27.8,00.0,37.9,30.5,12.6,0000.0,0005.75,0013.89,0004.08
2022-03-26 05:37:00,,0826.5,5.01,0.00,28.8,27.8,00.0,37.9,30.5,12.7,0000.0,0005.77,0013.93,0004.08
2022-03-26 05:38:00,,0826.5,5.01,0.00,28.8,27.7,00.0,37.9,30.5,12.7,0000.0,0005.76,0013.72,0004.08
2022-03-26 05:39:00,,0826.3,4.99,0.00,28.8,27.8,00.0,37.8,30.5,12.7,0000.0,0005.79,0014.10,0004.06
2022-03-26 05:40:00,,0826.3,4.99,0.00,28.8,27.8,00.0,37.8,30.5,12.7,0000.0,0005.80,0016.40,0004.04
2022-03-26 05:41:00,,0826.4,5.01,0.00,28.8,27.8,00.0,37.8,30.5,12.7,0000.0,0005.87,0017.07,0004.04
2022-03-26 05:42:00,,0826.5,5.00,0.00,28.8,27.8,00.0,37.8,30.5,12.7,0000.0,0005.85,0017.14,0004.02
2022-03-26 05:43:00,,0826.4,4.99,0.00,28.7,27.7,00.0,37.8,30.5,12.7,0000.0,0005.83,0017.56,0004.00
2022-03-26 05:44:00,,0826.3,4.99,0.00,28.7,27.7,00.0,37.8,30.4,12.7,0000.0,0005.85,0017.78,0003.98
2022-03-26 05:45:00,,0826.3,5.00,0.00,28.7,27.7,00.0,37.8,30.5,12.7,0000.0,0005.81,0017.83,0003.98
2022-03-26 05:46:00,,0826.5,5.02,0.00,28.7,27.7,00.0,37.8,30.4,12.7,0000.0,0005.77,0017.71,0003.96
2022-03-26 05:47:00,,0826.5,4.99,0.00,28.7,27.7,00.0,37.8,30.4,12.7,0000.0,0005.75,0018.05,0003.95
2022-03-26 05:48:00,,0826.5,4.99,0.00,28.7,27.7,00.0,37.8,30.4,12.7,0000.0,0005.69,0018.24,0003.95
2022-03-26 05:49:00,,0826.3,5.01,0.00,28.7,27.7,00.0,37.8,30.4,12.7,0000.0,0005.76,0018.60,0003.97
2022-03-26 05:50:00,,0826.3,5.00,0.00,28.7,27.7,00.0,37.7,30.4,12.7,0000.0,0005.72,0018.13,0004.00
2022-03-26 05:51:00,,0826.3,5.00,0.00,28.7,27.7,00.0,37.7,30.4,12.6,0000.0,0005.73,0016.85,0004.04
2022-03-26 05:52:00,,0826.3,4.98,0.00,28.7,27.7,00.0,37.7,30.4,12.7,0000.0,0005.65,0016.35,0004.05
2022-03-26 05:53:00,,0826.3,5.00,0.00,28.7,27.7,00.0,37.7,30.4,12.7,0000.0,0005.59,0016.27,0004.07
2022-03-26 05:54:00,,0826.3,5.02,0.00,28.7,27.7,00.0,37.7,30.4,12.7,0000.0,0005.62,0016.64,0004.10
2022-03-26 05:55:00,,0826.4,4.99,0.00,28.7,27.7,00.0,37.7,30.4,12.7,0000.0,0005.62,0016.32,0004.11
2022-03-26 05:56:00,,0826.4,4.99,0.00,28.7,27.7,00.0,37.7,30.4,12.7,0000.0,0005.64,0017.00,0004.11
2022-03-26 05:57:00,,0826.4,5.00,0.00,28.6,27.6,00.0,37.7,30.4,12.7,0000.0,0005.64,0017.26,0004.12
2022-03-26 05:58:00,,0826.4,5.01,0.00,28.7,27.6,00.0,37.7,30.4,12.7,0000.0,0005.65,0016.70,0004.13
2022-03-26 05:59:00,,0826.3,4.99,0.00,28.7,27.6,00.0,37.7,30.4,12.7,0000.0,0005.65,0016.52,0004.14
